Regional Weather Roundup
Issued by NWS Sterling, VA

Home | Current Version | Previous Version | Text Only | Print | Product List | Glossary Off
Versions: 1 2 3 4 5 6 7 8 9 10 11 12 13 14 15 16 17 18 19 20 21 22 23 24 25 26 27 28 29 30 31 32 33 34 35 36 37 38 39 40 41 42 43 44 45 46 47 48 49 50

000
ASUS41 KLWX 301310
RWRLWX

REGIONAL WEATHER ROUNDUP
NATIONAL WEATHER SERVICE BALTIMORE MD/WASHINGTON DC
900 AM EDT THU JUL 30 2015

Note: "FAIR" indicates few or no clouds below 12,000 feet
with no significant weather and/or obstructions to visibility.
 TC=TEMPERATURE CELSIUS

 * =Non NWS site. Station does not report precipitation (e.g. rain,
    snow, etc.), thunder, or fog.

DCZ001-MDZ009-015-VAZ040>042-051-053>054-301400-
WASHINGTON METRO

CITY           SKY/WX    TMP DP  RH WIND       PRES   REMARKS
WASHINGTON NAT PTSUNNY   82  74  76 S9        29.93R
DULLES         PTSUNNY   78  73  84 S7        29.92S
ANDREWS AFB    MOSUNNY   80  72  77 S13       29.92S
FT BELVOIR     MOSUNNY   79  73  80 S5        29.92S
QUANTICO       PTSUNNY   80  72  76 S8        29.93S
COLLEGE PARK*  MOSUNNY   81  73  78 SW5       29.92R
LEESBURG*      PTSUNNY   81  77  89 SW6       29.93S
MANASSAS*      SUNNY     79  75  89 SW7       29.92F
GAITHERSBURG*  MOSUNNY   81  73  78 S6        29.96S

$$

MDZ006>007-011-014-301400-
BALTIMORE METRO

CITY           SKY/WX    TMP DP  RH WIND       PRES   REMARKS
BWI AIRPORT    PTSUNNY   80  73  79 SW8       29.91S
MD SCIENCE CTR   N/A     82  73  74 MISG      29.91S
MARTIN STATE   PTSUNNY   82  75  78 S6        29.93S
ANNAPOLIS      MOSUNNY   80  71  74 VRB7      29.92S
FORT MEADE*    MOSUNNY   77  72  83 SW3       29.94S

$$

MDZ012-015-019>023-301400-
MARYLAND EASTERN SHORE

CITY           SKY/WX    TMP DP  RH WIND       PRES   REMARKS
OCEAN CITY     MOSUNNY   81  73  76 S7        29.96S
SALISBURY      SUNNY     80  74  81 S12       29.95S
BAY BRIDGE AP*   N/A     81  70  69 S6        29.93S
CAMBRIDGE*     SUNNY     81  68  65 S10       29.94S
EASTON*        MOSUNNY   82  73  74 SW10      29.97S

$$

MDZ017>025-301400-
SOUTHERN MARYLAND

CITY           SKY/WX    TMP DP  RH WIND       PRES   REMARKS
PATUXENT RIVER MOSUNNY   79  70  74 SW13      29.94S
ST INIGOES     PTSUNNY   80  73  79 S8        29.94S
LEONARDTOWN*   SUNNY     79  70  73 S6        29.96S

$$

MDZ003>005-301400-
NORTH CENTRAL MARYLAND

CITY           SKY/WX    TMP DP  RH WIND       PRES   REMARKS
FREDERICK*     NOT AVBL
HAGERSTOWN APT PTSUNNY   81  73  76 SW5       29.92S
WESTMINSTER*   MOSUNNY   81  77  89 SW8       29.93S

$$

MDZ501>502-301400-
WESTERN MARYLAND

CITY           SKY/WX    TMP DP  RH WIND       PRES   REMARKS
OAKLAND*       FOG       68 N/A N/A W5        30.06R VSB<1/4
CUMBERLAND*    PTSUNNY   77  72  83 S3        29.98R

$$

VAZ025>031-301400-
SHENANDOAH VALLEY

CITY           SKY/WX    TMP DP  RH WIND       PRES   REMARKS
WINCHESTER*    MOSUNNY   82  73  74 SW9       29.93S
FRONT ROYAL*   FAIR      81  73  78 S5        29.93S
LURAY*         FAIR      81  73  78 S8        29.96S
NEW MARKET*    FAIR      78  73  85 CALM      29.95S
STAUNTON*      MOSUNNY   80  73  79 SW5       30.00S
WAYNESBORO*    FAIR      77  72  83 CALM      30.00R

$$

WVZ021-048>050-054>055-301400-
EASTERN WEST VIRGINIA PANHANDLE

CITY           SKY/WX    TMP DP  RH WIND       PRES   REMARKS
MARTINSBURG    MOSUNNY   80  74  81 VRB3      29.92S HAZE
PETERSBURG*    CLOUDY   N/A N/A N/A CALM      29.98R HAZE

$$

VAZ036>039-050-301400-
CENTRAL FOOTHILLS

CITY           SKY/WX    TMP DP  RH WIND       PRES   REMARKS
CHARLOTTESVILL MOSUNNY   80  74  81 VRB3      29.94F
CULPEPER*      MOSUNNY   78  74  85 S3        29.93F
ORANGE*        MOSUNNY   79  73  83 S7        29.95S
GORDONSVILLE*  PTSUNNY   79  73  83 SW5       29.94S
WARRENTON*     FAIR      80  76  88 S6        29.92S

$$

VAZ055>057-301400-
NORTH AND CENTRAL PIEDMONT

CITY           SKY/WX    TMP DP  RH WIND       PRES   REMARKS
FREDERICKSBRG* MOSUNNY   82  74  77 SW7       29.93R
STAFFORD*      MOSUNNY   79  72  77 CALM      29.97S

$$

NCZ024-NYZ072-PAZ021-071-VAZ022-071-301400-
OTHER REGIONAL OBSERVATIONS

CITY           SKY/WX    TMP DP  RH WIND       PRES   REMARKS
NEW YORK CITY  CLOUDY    79  71  76 MISG      29.94S
PHILADELPHIA   PTSUNNY   82  73  74 SW10      29.92S
PITTSBURGH     MOSUNNY   77  59  53 NW9       29.98R
ROANOKE        PTSUNNY   76  71  85 W7        30.02R
RICHMOND       PTSUNNY   81  72  74 S8        29.95F
RALEIGH        MOSUNNY   81  71  71 SW5       29.98R

$$

ANZ530>537-301400-
MARINE OBSERVATIONS

STATION/POSITION TIME  TEMP    WIND        PRES
                       AIR SEA DIR/SP/G
                 (UTC) (F)     (DEG/KT/KT) (MB)
THOMAS PT LIGHT  NOT AVBL
BALT KEY BRIDGE  1200   78                   N/A
COVE POINT       1200   78                   N/A
LEWISETTA        1200   78                   N/A

$$



USA.gov is the U.S. government's official web portal to all federal, state and local government web resources and services.